Regional Weather Roundup
Issued by NWS

Home | Current Version | Previous Version | Graphics & Text | Print | Product List | Glossary On
Versions: 1 2 3 4 5 6 7 8 9 10 11 12 13 14 15 16 17 18 19 20 21 22 23 24 25 26 27 28 29 30 31 32 33 34 35 36 37 38 39 40 41 42 43 44 45 46 47 48 49 50
000
ASUS43 KBIS 222302
RWRND

NORTH DAKOTA REGIONAL WEATHER ROUNDUP
NATIONAL WEATHER SERVICE BISMARCK ND
600 PM CDT SAT JUL 22 2017

NOTE: "FAIR" INDICATES FEW OR NO CLOUDS BELOW 12,000 FEET WITH NO
SIGNIFICANT WEATHER AND/OR OBSTRUCTIONS TO VISIBILITY.


NDZ001>003-009>011-017-230000-
NORTHWEST NORTH DAKOTA

CITY           SKY/WX    TMP DP  RH WIND       PRES   REMARKS
WILLISTON      SUNNY     86  46  24 NW16G25   30.00S
MINOT          MOSUNNY   80  51  36 NW23G29   29.95S
MINOT AFB      MOSUNNY   78  53  41 N21G28    29.95R
$$

NDZ018>021-031>035-040>046-230000-
SOUTHWEST NORTH DAKOTA

CITY           SKY/WX    TMP DP  RH WIND       PRES   REMARKS
BISMARCK       SUNNY     84  50  30 NW18G30   29.95R
DICKINSON      SUNNY     84  45  25 NW20      30.00F
GARRISON         N/A     81  49  32 N18G29    29.96S
HETTINGER ARPT SUNNY     86  41  20 NW20G30   30.03F
$$

NDZ004>008-012>016-024-026-027-054-230000-
NORTHEAST NORTH DAKOTA

CITY           SKY/WX    TMP DP  RH WIND       PRES   REMARKS
GRAND FORKS    CLOUDY    77  58  51 NW17G23   29.84S
GRND FRKS AFB  CLOUDY    75  56  51 N14G22    29.86S
DEVILS LAKE    CLOUDY    73  58  59 NW12      29.92R
$$

NDZ022-023-025-028>030-036>039-047>053-230000-
SOUTHEAST NORTH DAKOTA

CITY           SKY/WX    TMP DP  RH WIND       PRES   REMARKS
FARGO          SUNNY     84  57  39 NW14      29.85F
JAMESTOWN      SUNNY     82  56  40 N12       29.89S
$$





USA.gov is the U.S. government's official web portal to all federal, state and local government web resources and services.